Location: Ehrke Reservoir
(40.0279°N, 99.6641°W)
Time: 07:00:59
(UTC+00:00)

AQUARIUS - Pass Details

Date: 20 January 2020
Orbit: 651 x 652 km, 98.0° (Epoch: 24 February)

Event Time Altitude Azimuth Distance (km) Brightness Sun altitude
Rises 00:16:13 0° 170° (S) 2,957 7.7 -6.9°
Reaches altitude 10° 00:18:26 10° 172° (S) 2,051 6.9 -7.2°
Maximum altitude 00:22:54 74° 258° (WSW) 681 4.5 -8.0°
Drops below altitude 10° 00:27:24 10° 344° (NNW) 2,066 6.7 -8.9°
Sets 00:29:38 0° 346° (NNW) 2,981 7.5 -9.3°
